Regional Weather Roundup
Issued by NWS

Home | Current Version | Previous Version | Graphics & Text | Print | Product List | Glossary Off
Versions: 1 2 3 4 5 6 7 8 9 10 11 12 13 14 15 16 17 18 19 20 21 22 23 24 25 26 27 28 29 30 31 32 33 34 35 36 37 38 39 40 41 42 43 44 45 46 47 48 49 50

000
ASUS45 KSLC 182310
RWRUT

UTAH REGIONAL WEATHER ROUNDUP
NATIONAL WEATHER SERVICE SALT LAKE CITY UT
400 PM MST THU DEC 18 2014

UTZ001>011-023>025-190000-

NORTHERN UTAH

CITY           SKY/WX    TMP DP  RH WIND       PRES   REMARKS
BRIGHAM CITY   CLOUDY    42  30  63 CALM      30.16R
HILL AFB       MOCLDY    40  31  68 NE3       30.14R
LOGAN          CLOUDY    40  31  70 NW6       30.13R
OGDEN          CLOUDY    43  31  62 CALM      30.14R
PROVO AIRPORT  NOT AVBL
SALT LAKE CITY MOCLDY    45  29  53 N6        30.13R
VERNAL         CLOUDY    27  23  85 E3        30.16R
WENDOVER       CLEAR     37  27  65 S3        30.15R
HEBER CITY     PTCLDY    36  28  75 CALM      30.11S
WEST JORDAN    PTCLDY    39  34  81 SW8       30.14R WCI  34

$$

UTZ012>022-026-027-190000-

SOUTHERN/CENTRAL UTAH

CITY           SKY/WX    TMP DP  RH WIND       PRES   REMARKS
BLANDING       PTCLDY    38  31  74 SW3       30.18S
BRYCE CANYON   SUNNY     33  18  53 NW10      30.11R WCI  25
CEDAR CITY     MOSUNNY   42  27  55 N3        30.11R
DELTA          PTCLDY    43  27  52 S3        30.13S
MILFORD        PTSUNNY   46  26  45 CALM      30.11R
MOAB/CYNLANDS  PTCLDY    41  32  70 CALM      30.12S
PRICE          CLOUDY    35  27  72 CALM      30.11R
ST GEORGE      PTCLDY    52  36  54 CALM      30.16R
KANAB          PTSUNNY   45  32  61 S5        30.16R

$$

REGIONAL REPORTS     COLORADO/ARIZONA

CITY           SKY/WX    TMP DP  RH WIND       PRES   REMARKS
CRAIG, CO      CLEAR     23  20  88 S3        30.12R
GRAND JUNCTION CLOUDY    38  29  70 NW5       30.12R WCI  34
RIFLE          CLOUDY    37  31  78 SW6       30.11R WCI  32
MONTROSE       CLOUDY    36  31  82 N6        30.13R WCI  31
CORTEZ         MOCLDY    37  30  75 NE6       30.11S WCI  32
PAGE, AZ       SUNNY     47  32  56 CALM      30.12R
GRAND CANYON   MOSUNNY   37  28  70 NW5       30.12S WCI  33
KINGMAN        MOSUNNY   52  34  50 CALM      30.12S
FLAGSTAFF      PTSUNNY   33  28  81 E3        30.11R

$$

REGIONAL REPORTS    NEVADA/IDAHO/WYOMING

CITY           SKY/WX    TMP DP  RH WIND       PRES   REMARKS
LAS VEGAS, NV  PTSUNNY   55  38  52 SE5       30.11S
ELY            SUNNY     40  22  48 W8        30.13R WCI  34
ELKO           CLOUDY    37  30  75 SW3       30.12S
POCATELLO, ID  MOCLDY    38  32  79 E3        30.12S
BURLEY         CLEAR     44  28  53 CALM      30.10R
EVANSTON, WY   PTCLDY    33  20  58 SW14      30.09R WCI  23
ROCK SPRINGS   MOCLDY    31  20  63 W6        30.08R WCI  25
KEMMERER       MOCLDY    30  21  69 W8        30.09R WCI  23

$$



USA.gov is the U.S. government's official web portal to all federal, state and local government web resources and services.